| time (UTC) | temp C | wind direction | speed KPH | gust KPH | rain 1hr cm | rain 24hr cm | rain mn cm | humidity % | barometer mb |
| 20260506155926 | 10 | 67 | 8.0 | 9.7 | 0.00 | 0.00 | 0.00 | 19 | 1009.4 |
| 20260506145912 | 13 | 33 | 6.4 | 9.7 | 0.00 | 0.00 | 0.00 | 20 | 1009.3 |
| 20260506144910 | 12 | 22 | 3.2 | 8.0 | 0.00 | 0.00 | 0.00 | 21 | 1009.3 |
| 20260506143908 | 12 | 135 | 3.2 | 6.4 | 0.00 | 0.00 | 0.00 | 24 | 1009.4 |
| 20260506140900 | 11 | 33 | 4.8 | 12.9 | 0.00 | 0.00 | 0.00 | 29 | 1009.5 |
| 20260506135859 | 12 | 90 | 6.4 | 8.0 | 0.00 | 0.00 | 0.00 | 27 | 1009.5 |
| 20260506134856 | 11 | 67 | 4.8 | 11.3 | 0.00 | 0.00 | 0.00 | 27 | 1009.6 |
| 20260506132851 | 10 | 67 | 4.8 | 11.3 | 0.00 | 0.00 | 0.00 | 28 | 1009.8 |
| 20260506125844 | 12 | 45 | 3.2 | 6.4 | 0.00 | 0.00 | 0.00 | 25 | 1009.9 |
| 20260506115830 | 11 | 225 | 3.2 | 8.0 | 0.00 | 0.00 | 0.18 | 25 | 1010.0 |
| 20260506114829 | 11 | 258 | 3.2 | 8.0 | 0.00 | 0.00 | 0.18 | 26 | 1009.9 |
| 20260506112823 | 12 | 315 | 3.2 | 11.3 | 0.00 | 0.00 | 0.18 | 29 | 1009.8 |
| 20260506111820 | 11 | 270 | 3.2 | 11.3 | 0.00 | 0.00 | 0.18 | 29 | 1009.9 |
| 20260506110818 | 11 | 281 | 12.9 | 12.9 | 0.00 | 0.00 | 0.18 | 28 | 1010.0 |
| 20260506105815 | 10 | 292 | 11.3 | 11.3 | 0.00 | 0.00 | 0.18 | 28 | 1010.0 |
| 20260506104813 | 10 | 337 | 3.2 | 12.9 | 0.00 | 0.00 | 0.18 | 29 | 1010.0 |
| 20260506103812 | 11 | 326 | 4.8 | 11.3 | 0.00 | 0.00 | 0.18 | 31 | 1010.0 |
| 20260506102809 | 10 | 202 | 3.2 | 12.9 | 0.00 | 0.00 | 0.18 | 31 | 1009.9 |
| 20260506101808 | 10 | 180 | 3.2 | 12.9 | 0.00 | 0.00 | 0.18 | 31 | 1009.9 |
| 20260506094759 | 10 | 270 | 9.7 | 9.7 | 0.00 | 0.00 | 0.18 | 30 | 1009.9 |
| 20260506092755 | 9 | 270 | 3.2 | 11.3 | 0.00 | 0.00 | 0.18 | 28 | 1009.6 |
| 20260506090749 | 10 | 315 | 3.2 | 14.5 | 0.00 | 0.00 | 0.18 | 26 | 1009.2 |
| 20260506085747 | 9 | 315 | 6.4 | 12.9 | 0.00 | 0.00 | 0.18 | 24 | 1009.3 |
| 20260506084746 | 9 | 315 | 6.4 | 9.7 | 0.00 | 0.00 | 0.18 | 28 | 1009.2 |
| 20260506081738 | 9 | 247 | 4.8 | 6.4 | 0.00 | 0.00 | 0.18 | 35 | 1009.3 |
| 20260506072726 | 7 | 315 | 3.2 | 6.4 | 0.00 | 0.00 | 0.18 | 37 | 1009.3 |
| 20260506071724 | 7 | 202 | 0.0 | 4.8 | 0.00 | 0.00 | 0.18 | 37 | 1009.3 |
| 20260506070721 | 7 | 292 | 1.6 | 4.8 | 0.00 | 0.00 | 0.18 | 37 | 1009.3 |
| 20260506061710 | 6 | 0 | 0.0 | 9.7 | 0.00 | 0.00 | 0.18 | 37 | 1009.0 |
| 20260506060707 | 5 | 270 | 0.0 | 3.2 | 0.00 | 0.00 | 0.18 | 40 | 1009.0 |
| 20260506050652 | 2 | 90 | 1.6 | 1.6 | 0.00 | 0.00 | 0.18 | 45 | 1008.6 |
| 20260506042646 | 2 | 90 | 1.6 | 3.2 | 0.00 | 0.00 | 0.18 | 47 | 1008.5 |
| 20260506035636 | 2 | 45 | 0.0 | 0.0 | 0.00 | 0.00 | 0.18 | 44 | 1008.6 |
| 20260506032629 | 2 | 90 | 1.6 | 3.2 | 0.00 | 0.00 | 0.18 | 50 | 1008.6 |
| 20260506031626 | 2 | 90 | 3.2 | 3.2 | 0.00 | 0.00 | 0.18 | 52 | 1008.6 |
| 20260506023617 | 2 | 90 | 1.6 | 3.2 | 0.00 | 0.00 | 0.18 | 49 | 1008.7 |
| 20260506022615 | 2 | 45 | 0.0 | 4.8 | 0.00 | 0.00 | 0.18 | 47 | 1008.6 |
| 20260506015608 | 2 | 45 | 0.0 | 0.0 | 0.00 | 0.00 | 0.18 | 44 | 1008.7 |
| 20260506014605 | 2 | 90 | 1.6 | 1.6 | 0.00 | 0.00 | 0.18 | 44 | 1008.7 |
| 20260506011558 | 2 | 90 | 0.0 | 3.2 | 0.00 | 0.00 | 0.18 | 48 | 1008.9 |
| 20260506003550 | 3 | 90 | 3.2 | 4.8 | 0.00 | 0.00 | 0.18 | 45 | 1009.1 |
| 20260506001544 | 3 | 45 | 0.0 | 1.6 | 0.00 | 0.00 | 0.18 | 45 | 1009.2 |
| 20260505234536 | 3 | 45 | 0.0 | 1.6 | 0.00 | 0.00 | 0.18 | 46 | 1009.4 |
| 20260505230527 | 3 | 45 | 0.0 | 0.0 | 0.00 | 0.00 | 0.18 | 40 | 1009.5 |
| 20260505225525 | 3 | 90 | 0.0 | 3.2 | 0.00 | 0.00 | 0.18 | 41 | 1009.5 |
| 20260505222518 | 3 | 45 | 0.0 | 0.0 | 0.00 | 0.00 | 0.18 | 41 | 1009.9 |
| 20260505202449 | 4 | 45 | 0.0 | 0.0 | 0.00 | 0.00 | 0.18 | 48 | 1009.7 |
| 20260505200444 | 4 | 45 | 0.0 | 0.0 | 0.00 | 0.00 | 0.18 | 42 | 1009.5 |
| 20260505195442 | 5 | 90 | 0.0 | 0.0 | 0.00 | 0.00 | 0.18 | 37 | 1009.5 |
| 20260505194440 | 5 | 67 | 0.0 | 0.0 | 0.00 | 0.00 | 0.18 | 37 | 1009.3 |
| 20260505192435 | 5 | 45 | 0.0 | 1.6 | 0.00 | 0.00 | 0.18 | 41 | 1009.4 |
| 20260505190432 | 6 | 90 | 1.6 | 3.2 | 0.00 | 0.00 | 0.18 | 36 | 1009.3 |
| 20260505183423 | 7 | 45 | 0.0 | 0.0 | 0.00 | 0.00 | 0.18 | 34 | 1009.1 |
| 20260505180416 | 7 | 0 | 0.0 | 3.2 | 0.00 | 0.00 | 0.18 | 36 | 1009.3 |
| 20260505174411 | 5 | 90 | 6.4 | 9.7 | 0.00 | 0.00 | 0.18 | 42 | 1009.1 |
| 20260505171405 | 4 | 56 | 3.2 | 14.5 | 0.00 | 0.00 | 0.18 | 49 | 1009.5 |
| 20260505165400 | 5 | 90 | 12.9 | 14.5 | 0.00 | 0.00 | 0.00 | 44 | 1009.9 |